Accueil
METAR-TAF:

METAR-TAF

Aéroports :

Teller, Alaska, États-Unis

latitude: 65-14-25N, longitude: 166-20-22W, altitude: 90 m

Observation

Le bulletin a été fait il y a 1 heure et 0 minutes, à 12:56 UTC
Vent 7 kt de sud/sud-est
Température -25°C
Humidité 83%
Pression 1013 hPa
Visibilité: 16.1 km
Ciel clair

METAR: PATE 291256Z AUTO 15007KT 10SM CLR M25/M27 A2992 RMK AO2 SLP146 T12501272 FZRANO

Heure: 04:56 (13:56 UTC)


TAF: absent

Observations et prévisions météorologiques de plus de 4000 aéroports (messages METAR et TAF).

Les stations disponibles sont représentées par des disques jaunes et rouges sur la carte.

Passer la souris dessus pour voir le nom de la station.

Cliquer dessus pour voir les observations et prévisions météorologiques.

Pour changer de carte: cliquez sur les boutons verts avec une croix noire pour zoomer, sur le bouton vert avec un tiret pour effectuer un zoom arrière, ou sur les flèches vertes pour les cartes adjacentes.


METAR-TAF: